DAL9378 KBDL-KBUF

Flight info

Callsign DAL9378
Flight time 0h 54m
Altitude 38000
Route CTR CAM SYR ROC EHMAN
Aircraft E75L/M-SDE3GILORVW/S

Departure

Time 2026-04-30 18:25
Airport Bradley International Airport (KBDL)

Arrival

Time 2026-04-30 19:19
Airport Buffalo Niagara International Airport (KBUF)
Time Latitude Longitude Altitude Speed Heading
2026-04-30 18:02 41.93111 -72.68362 183 ft 0 kts 315°
2026-04-30 18:15 41.93098 -72.68346 183 ft 2 kts 317°
2026-04-30 18:15 41.93057 -72.68335 183 ft 2 kts 21°
2026-04-30 18:16 41.93041 -72.68349 183 ft 0 kts 46°
2026-04-30 18:16 41.93041 -72.68350 183 ft 0 kts 46°
2026-04-30 18:17 41.93041 -72.68349 183 ft 0 kts 46°
2026-04-30 18:18 41.93042 -72.68348 183 ft 1 kts 46°
2026-04-30 18:18 41.93054 -72.68330 183 ft 3 kts 46°
2026-04-30 18:18 41.93080 -72.68296 184 ft 6 kts 45°
2026-04-30 18:18 41.93120 -72.68243 184 ft 9 kts 44°
2026-04-30 18:19 41.93180 -72.68182 185 ft 12 kts 13°
2026-04-30 18:19 41.93260 -72.68241 185 ft 15 kts 320°
2026-04-30 18:19 41.93351 -72.68344 185 ft 18 kts 319°
2026-04-30 18:19 41.93457 -72.68470 184 ft 21 kts 316°
2026-04-30 18:20 41.93566 -72.68617 183 ft 22 kts 313°
2026-04-30 18:20 41.93666 -72.68736 182 ft 16 kts 357°
2026-04-30 18:20 41.93756 -72.68652 182 ft 16 kts 43°
2026-04-30 18:20 41.93843 -72.68545 182 ft 17 kts 41°
2026-04-30 18:21 41.93935 -72.68433 182 ft 18 kts 47°
2026-04-30 18:21 41.94028 -72.68320 182 ft 18 kts 41°
2026-04-30 18:21 41.94128 -72.68199 181 ft 20 kts 41°
2026-04-30 18:21 41.94235 -72.68070 181 ft 20 kts 42°
2026-04-30 18:22 41.94343 -72.67936 180 ft 22 kts 44°
2026-04-30 18:22 41.94570 -72.67635 178 ft 24 kts 44°
2026-04-30 18:22 41.94693 -72.67473 176 ft 25 kts 44°
2026-04-30 18:23 41.94811 -72.67318 173 ft 20 kts 44°
2026-04-30 18:23 41.94918 -72.67178 170 ft 17 kts 44°
2026-04-30 18:23 41.95022 -72.67176 168 ft 17 kts 315°
2026-04-30 18:23 41.95003 -72.67303 170 ft 9 kts 223°
2026-04-30 18:24 41.94918 -72.67409 173 ft 39 kts 224°
2026-04-30 18:24 41.94662 -72.67741 178 ft 63 kts 224°
2026-04-30 18:24 41.94186 -72.68364 181 ft 126 kts 224°
2026-04-30 18:25 41.93460 -72.69339 302 ft 161 kts 226°
2026-04-30 18:25 41.91918 -72.71588 1630 ft 172 kts 239°
2026-04-30 18:25 41.91662 -72.73229 1963 ft 199 kts 283°
2026-04-30 18:26 41.93436 -72.76157 3084 ft 231 kts 327°
2026-04-30 18:26 41.94941 -72.77146 3499 ft 256 kts 337°
2026-04-30 18:26 41.96536 -72.78238 4190 ft 269 kts 331°
2026-04-30 18:27 42.00144 -72.80413 5366 ft 304 kts 336°
2026-04-30 18:27 42.02029 -72.81403 5937 ft 279 kts 337°
2026-04-30 18:28 42.05649 -72.83234 7676 ft 285 kts 336°
2026-04-30 18:28 42.07500 -72.84157 8635 ft 285 kts 336°
2026-04-30 18:28 42.11206 -72.86002 10191 ft 293 kts 336°
2026-04-30 18:29 42.13102 -72.86945 10817 ft 302 kts 335°
2026-04-30 18:29 42.19180 -72.89970 12442 ft 332 kts 335°
2026-04-30 18:30 42.23445 -72.92298 13686 ft 342 kts 333°
2026-04-30 18:30 42.27784 -72.94677 15035 ft 347 kts 333°
2026-04-30 18:31 42.30003 -72.95892 15683 ft 351 kts 333°
2026-04-30 18:31 42.34491 -72.98354 16902 ft 358 kts 333°
2026-04-30 18:32 42.38986 -73.01118 18067 ft 357 kts 315°
2026-04-30 18:32 42.40489 -73.03581 18613 ft 344 kts 289°
2026-04-30 18:32 42.40721 -73.09609 19771 ft 333 kts 263°
2026-04-30 18:33 42.40888 -73.12684 20362 ft 341 kts 276°
2026-04-30 18:33 42.42129 -73.18809 21501 ft 350 kts 282°
2026-04-30 18:33 42.42889 -73.21874 22007 ft 354 kts 283°
2026-04-30 18:34 42.43684 -73.24983 22539 ft 357 kts 283°
2026-04-30 18:34 42.45336 -73.31359 23609 ft 362 kts 283°
2026-04-30 18:34 42.46162 -73.34538 24111 ft 364 kts 284°
2026-04-30 18:35 42.46987 -73.37717 24623 ft 366 kts 284°
2026-04-30 18:35 42.47839 -73.41007 25127 ft 369 kts 284°
2026-04-30 18:35 42.48678 -73.44246 25617 ft 371 kts 284°
2026-04-30 18:36 42.50382 -73.50840 26526 ft 377 kts 284°
2026-04-30 18:36 42.51164 -73.53875 26931 ft 379 kts 284°
2026-04-30 18:36 42.52869 -73.60503 27819 ft 383 kts 284°
2026-04-30 18:37 42.53743 -73.63907 28244 ft 385 kts 284°
2026-04-30 18:37 42.54604 -73.67262 28689 ft 387 kts 283°
2026-04-30 18:37 42.55465 -73.70625 29139 ft 388 kts 283°
2026-04-30 18:37 42.56334 -73.74022 29543 ft 391 kts 283°
2026-04-30 18:38 42.57197 -73.77403 29932 ft 393 kts 283°
2026-04-30 18:38 42.58089 -73.80904 30319 ft 395 kts 283°
2026-04-30 18:38 42.58982 -73.84415 30658 ft 398 kts 284°
2026-04-30 18:38 42.59868 -73.87895 30982 ft 400 kts 284°
2026-04-30 18:39 42.60770 -73.91451 31304 ft 403 kts 284°
2026-04-30 18:39 42.61684 -73.95058 31619 ft 405 kts 284°
2026-04-30 18:39 42.62589 -73.98636 31928 ft 407 kts 284°
2026-04-30 18:39 42.63509 -74.02274 32292 ft 407 kts 284°
2026-04-30 18:40 42.64418 -74.05881 32677 ft 406 kts 284°
2026-04-30 18:40 42.65317 -74.09448 33046 ft 405 kts 284°
2026-04-30 18:40 42.66222 -74.13045 33366 ft 404 kts 284°
2026-04-30 18:40 42.67126 -74.16647 33641 ft 404 kts 284°
2026-04-30 18:41 42.68010 -74.20175 33905 ft 404 kts 284°
2026-04-30 18:41 42.68894 -74.23704 34185 ft 404 kts 284°
2026-04-30 18:41 42.69778 -74.27244 34476 ft 404 kts 284°
2026-04-30 18:41 42.70668 -74.30810 34758 ft 404 kts 284°
2026-04-30 18:42 42.71559 -74.34383 35030 ft 404 kts 284°
2026-04-30 18:42 42.73344 -74.41563 35563 ft 403 kts 284°
2026-04-30 18:42 42.74231 -74.45137 35798 ft 403 kts 284°
2026-04-30 18:45 42.82933 -74.80516 37612 ft 409 kts 284°
2026-04-30 18:45 42.83786 -74.84014 37760 ft 406 kts 284°
2026-04-30 18:46 42.85505 -74.91081 37811 ft 408 kts 284°
2026-04-30 18:46 42.87249 -74.98271 37794 ft 416 kts 285°
2026-04-30 18:47 42.89000 -75.05512 37806 ft 422 kts 285°
2026-04-30 18:47 42.90833 -75.13116 37815 ft 429 kts 285°
2026-04-30 18:48 42.92668 -75.20753 37817 ft 436 kts 285°
2026-04-30 18:48 42.94510 -75.28445 37828 ft 441 kts 285°
2026-04-30 18:49 42.96366 -75.36224 37823 ft 440 kts 285°
2026-04-30 18:49 42.98209 -75.43979 37825 ft 438 kts 285°
2026-04-30 18:50 43.00029 -75.51657 37830 ft 438 kts 285°
2026-04-30 18:50 43.01840 -75.59325 37827 ft 436 kts 285°
2026-04-30 18:50 43.02718 -75.63051 37753 ft 423 kts 285°
2026-04-30 18:51 43.03528 -75.66494 37385 ft 415 kts 284°
2026-04-30 18:51 43.04346 -75.69978 36748 ft 415 kts 284°
2026-04-30 18:51 43.05162 -75.73458 36405 ft 411 kts 284°
2026-04-30 18:51 43.06014 -75.77104 36265 ft 422 kts 284°
2026-04-30 18:52 43.06892 -75.80861 36106 ft 429 kts 284°
2026-04-30 18:52 43.07765 -75.84602 35938 ft 428 kts 284°
2026-04-30 18:52 43.08635 -75.88333 35764 ft 426 kts 284°
2026-04-30 18:52 43.09443 -75.91809 35591 ft 426 kts 284°
2026-04-30 18:53 43.10244 -75.95258 35417 ft 418 kts 284°
2026-04-30 18:53 43.11005 -75.98535 35216 ft 404 kts 283°
2026-04-30 18:53 43.11717 -76.01611 34983 ft 392 kts 283°
2026-04-30 18:53 43.12445 -76.04771 34610 ft 400 kts 283°
2026-04-30 18:54 43.13193 -76.08017 34261 ft 418 kts 283°
2026-04-30 18:54 43.14021 -76.11606 33801 ft 428 kts 284°
2026-04-30 18:54 43.14850 -76.15207 32935 ft 431 kts 284°
2026-04-30 18:54 43.15582 -76.18980 32413 ft 424 kts 276°
2026-04-30 18:55 43.15875 -76.22868 31863 ft 421 kts 269°
2026-04-30 18:55 43.15812 -76.30335 30971 ft 412 kts 266°
2026-04-30 18:55 43.15732 -76.34125 30525 ft 409 kts 266°
2026-04-30 18:56 43.15562 -76.41353 29669 ft 404 kts 266°
2026-04-30 18:56 43.15476 -76.44859 29260 ft 400 kts 266°
2026-04-30 18:56 43.15384 -76.48538 28833 ft 398 kts 266°
2026-04-30 18:57 43.15200 -76.55793 28029 ft 394 kts 266°
2026-04-30 18:57 43.15109 -76.59359 27574 ft 393 kts 266°
2026-04-30 18:57 43.15015 -76.62937 27150 ft 388 kts 266°
2026-04-30 18:58 43.14834 -76.69768 26362 ft 381 kts 265°
2026-04-30 18:58 43.14740 -76.73223 25961 ft 379 kts 265°
2026-04-30 18:58 43.14645 -76.76699 25553 ft 376 kts 265°
2026-04-30 18:59 43.14452 -76.83642 24759 ft 371 kts 265°
2026-04-30 19:00 43.14155 -76.94041 23566 ft 364 kts 265°
2026-04-30 19:00 43.14056 -76.97433 23159 ft 362 kts 265°
2026-04-30 19:00 43.13855 -77.04227 22376 ft 359 kts 265°
2026-04-30 19:01 43.13651 -77.10973 21597 ft 355 kts 266°
2026-04-30 19:01 43.13549 -77.14315 21208 ft 353 kts 266°
2026-04-30 19:02 43.13344 -77.20911 20441 ft 349 kts 266°
2026-04-30 19:02 43.13145 -77.27225 19706 ft 346 kts 266°
2026-04-30 19:03 43.12942 -77.33532 19017 ft 342 kts 266°
2026-04-30 19:03 43.12735 -77.39854 18283 ft 340 kts 266°
2026-04-30 19:04 43.12526 -77.46123 17552 ft 336 kts 266°
2026-04-30 19:04 43.12320 -77.52238 16842 ft 334 kts 266°
2026-04-30 19:05 43.12109 -77.58360 16131 ft 331 kts 266°
2026-04-30 19:05 43.11905 -77.64216 15447 ft 328 kts 266°
2026-04-30 19:06 43.11868 -77.69482 14839 ft 325 kts 271°
2026-04-30 19:06 43.11993 -77.72550 14477 ft 325 kts 271°
2026-04-30 19:06 43.12220 -77.78433 13789 ft 322 kts 271°
2026-04-30 19:07 43.12441 -77.84376 13094 ft 318 kts 271°
2026-04-30 19:07 43.12549 -77.87310 12745 ft 316 kts 271°
2026-04-30 19:08 43.12763 -77.93193 12070 ft 313 kts 272°
2026-04-30 19:08 43.12972 -77.99029 11388 ft 305 kts 272°
2026-04-30 19:08 43.13071 -78.01812 11061 ft 298 kts 272°
2026-04-30 19:09 43.13262 -78.07241 10429 ft 284 kts 273°
2026-04-30 19:09 43.13353 -78.09866 10122 ft 277 kts 273°
2026-04-30 19:09 43.13442 -78.12447 9839 ft 272 kts 273°
2026-04-30 19:10 43.13614 -78.17463 9252 ft 268 kts 273°
2026-04-30 19:10 43.13777 -78.22423 8714 ft 264 kts 270°
2026-04-30 19:11 43.13539 -78.24886 8603 ft 274 kts 261°
2026-04-30 19:11 43.12794 -78.29855 7476 ft 255 kts 260°
2026-04-30 19:11 43.12434 -78.32141 6964 ft 240 kts 260°
2026-04-30 19:12 43.12084 -78.34284 6467 ft 228 kts 260°
2026-04-30 19:12 43.11741 -78.36326 5974 ft 219 kts 260°
2026-04-30 19:12 43.11411 -78.38274 5642 ft 215 kts 260°
2026-04-30 19:13 43.10741 -78.42255 4974 ft 213 kts 260°
2026-04-30 19:13 43.10097 -78.46069 4962 ft 213 kts 260°
2026-04-30 19:13 43.09761 -78.48007 4957 ft 215 kts 255°
2026-04-30 19:14 43.09218 -78.49876 4947 ft 217 kts 250°
2026-04-30 19:14 43.08620 -78.51781 4547 ft 220 kts 250°
2026-04-30 19:14 43.08027 -78.53616 4136 ft 209 kts 246°
2026-04-30 19:14 43.07281 -78.55190 3794 ft 199 kts 236°
2026-04-30 19:15 43.06411 -78.56597 3446 ft 192 kts 231°
2026-04-30 19:15 43.04626 -78.59086 2981 ft 181 kts 229°
2026-04-30 19:15 43.03764 -78.60232 2984 ft 168 kts 229°
2026-04-30 19:16 43.02961 -78.61284 3001 ft 151 kts 229°
2026-04-30 19:16 43.02244 -78.62218 2800 ft 141 kts 229°
2026-04-30 19:16 43.00873 -78.64030 2425 ft 139 kts 229°
2026-04-30 19:17 43.00179 -78.64939 2238 ft 137 kts 229°
2026-04-30 19:17 42.98933 -78.66562 1895 ft 135 kts 228°
2026-04-30 19:17 42.98301 -78.67390 1720 ft 134 kts 227°
2026-04-30 19:18 42.97323 -78.68671 1452 ft 132 kts 227°
2026-04-30 19:18 42.96485 -78.69767 1221 ft 131 kts 227°
2026-04-30 19:18 42.95860 -78.70587 1054 ft 132 kts 227°
2026-04-30 19:19 42.95227 -78.71415 874 ft 131 kts 226°
2026-04-30 19:19 42.94596 -78.72221 722 ft 128 kts 225°
2026-04-30 19:19 42.93843 -78.73235 705 ft 41 kts 224°
2026-04-30 19:20 42.93688 -78.73428 703 ft 21 kts 214°
2026-04-30 19:20 42.93578 -78.73391 702 ft 14 kts 170°
2026-04-30 19:20 42.93415 -78.73405 699 ft 5 kts 162°
2026-04-30 19:21 42.93396 -78.73397 699 ft 0 kts 167°
2026-04-30 19:21 42.93391 -78.73395 699 ft 0 kts 169°